Location: Anjeux
(47.8815°N, 6.2076°E)
Time: 21:48:39
(UTC+00:00)

X-37B - Pass Details

Date: 21 September 2021
Orbit: 342 x 346 km, 45.0° (Epoch: 22 October)

Event Time Altitude Azimuth Distance (km) Brightness Sun altitude
Rises 12:03:46 0° 234° (SW) 2,135 4.8 42.4°
Enters shadow 12:38:52 -62° 119° (ESE) 11,684 7.7 40.6°
Exits shadow 13:14:24 -45° 324° (NW) 9,570 7.2 37.7°
Maximum altitude 04:32:01 11° 148° (SSE) 1,258 3.4 -8.9°
